GW2366 Weather Reports


Display with metric or nautical units.
time (UTC)temp
F
wind
direction
speed
MPH
gust
MPH
rain 1hr
in
rain 24hr
in
rain mn
in
humidity
%
barometer
mb
20260509224501 77 233 2.0 2.0 0.00 0.00 0.00 51 1013.5
20260509223958 77 253 5.0 9.0 0.00 0.00 0.00 53 1013.6
20260509223454 78 289 0.0 1.0 0.00 0.00 0.00 54 1013.6
20260509222952 78 196 3.0 3.0 0.00 0.00 0.00 55 1013.6
20260509222448 78 188 3.0 3.0 0.00 0.00 0.00 58 1013.7
20260509221943 77 182 2.0 3.0 0.00 0.00 0.00 60 1013.6
20260509221440 77 275 3.0 3.0 0.00 0.00 0.00 60 1013.7
20260509220936 77 189 4.0 6.0 0.00 0.00 0.00 59 1013.9
20260509220432 76 189 2.0 2.0 0.00 0.00 0.00 60 1013.9
20260509215928 77 250 3.0 3.0 0.00 0.00 0.00 61 1013.9
20260509215424 76 256 2.0 2.0 0.00 0.00 0.00 62 1014.0
20260509214922 77 225 1.0 2.0 0.00 0.00 0.00 63 1014.0
20260509214419 76 236 3.0 3.0 0.00 0.00 0.00 65 1014.1
20260509213915 77 242 3.0 5.0 0.00 0.00 0.00 62 1014.2
20260509213416 77 229 0.0 1.0 0.00 0.00 0.00 67 1014.3
20260509212914 77 174 1.0 2.0 0.00 0.00 0.00 67 1014.2
20260509212411 76 257 3.0 5.0 0.00 0.00 0.00 65 1014.4
20260509211907 76 339 4.0 6.0 0.00 0.00 0.00 65 1014.4
20260509211403 76 292 2.0 3.0 0.00 0.00 0.00 63 1014.2
20260509210859 77 256 3.0 3.0 0.00 0.00 0.00 65 1014.4
20260509210357 77 280 0.0 0.0 0.00 0.00 0.00 64 1014.5
20260509205852 76 257 3.0 3.0 0.00 0.00 0.00 67 1014.3
20260509205347 76 200 3.0 5.0 0.00 0.00 0.00 65 1014.4
20260509204844 75 266 3.0 3.0 0.00 0.00 0.00 66 1014.5
20260509204340 75 222 3.0 5.0 0.00 0.00 0.00 66 1014.5
20260509203836 75 270 5.0 6.0 0.00 0.00 0.00 66 1014.3
20260509203332 75 230 1.0 2.0 0.00 0.00 0.00 67 1014.6
20260509202829 75 196 3.0 3.0 0.00 0.00 0.00 67 1014.6
20260509202325 75 238 2.0 3.0 0.00 0.00 0.00 69 1014.7
20260509201824 75 270 3.0 3.0 0.00 0.00 0.00 68 1014.8
20260509201321 74 216 3.0 5.0 0.00 0.00 0.00 68 1014.8
20260509200818 74 286 1.0 1.0 0.00 0.00 0.00 70 1014.8
20260509200313 74 230 3.0 3.0 0.00 0.00 0.00 68 1015.0
20260509195810 74 218 2.0 3.0 0.00 0.00 0.00 68 1014.9
20260509195306 73 97 1.0 2.0 0.00 0.00 0.00 70 1014.8
20260509194805 73 229 2.0 2.0 0.00 0.00 0.00 70 1014.8
20260509194301 73 354 1.0 1.0 0.00 0.00 0.00 72 1014.9
20260509193758 72 182 2.0 2.0 0.00 0.00 0.00 72 1014.8
20260509193258 73 260 3.0 3.0 0.00 0.00 0.00 69 1014.9
20260509192755 73 154 1.0 2.0 0.00 0.00 0.00 69 1014.9
20260509192250 72 260 1.0 2.0 0.00 0.00 0.00 71 1015.2
20260509191745 73 282 2.0 2.0 0.00 0.00 0.00 70 1015.0
20260509191242 72 252 2.0 2.0 0.00 0.00 0.00 72 1015.2
20260509190738 73 241 3.0 3.0 0.00 0.00 0.00 71 1015.1
20260509190235 73 262 1.0 2.0 0.00 0.00 0.00 70 1015.2
20260509185733 72 331 1.0 1.0 0.00 0.00 0.00 71 1015.0
20260509185229 72 273 2.0 3.0 0.00 0.00 0.00 71 1015.2
20260509184727 72 211 1.0 2.0 0.00 0.00 0.00 75 1015.2
20260509184224 71 170 2.0 2.0 0.00 0.00 0.00 72 1015.1
20260509183720 71 82 1.0 2.0 0.00 0.00 0.00 73 1015.2
20260509183215 71 221 1.0 1.0 0.00 0.00 0.00 71 1015.4
20260509182711 72 299 2.0 2.0 0.00 0.00 0.00 71 1015.2
20260509182209 71 185 3.0 3.0 0.00 0.00 0.00 71 1015.2
20260509181706 71 60 1.0 2.0 0.00 0.00 0.00 70 1015.4
20260509181204 70 271 1.0 1.0 0.00 0.00 0.00 70 1015.3
20260509180700 70 246 0.0 0.0 0.00 0.00 0.00 69 1015.3
20260509180156 69 73 2.0 2.0 0.00 0.00 0.00 73 1015.2
20260509175653 69 39 1.0 1.0 0.00 0.00 0.00 72 1015.2
20260509175150 69 45 1.0 1.0 0.00 0.00 0.00 73 1015.4
20260509174645 67 330 0.0 0.0 0.00 0.00 0.00 75 1015.4
20260509174140 67 60 3.0 3.0 0.00 0.00 0.00 73 1015.3
20260509173636 68 77 3.0 3.0 0.00 0.00 0.00 73 1015.3
20260509173132 67 68 3.0 3.0 0.00 0.00 0.00 73 1015.4
20260509172629 66 133 3.0 3.0 0.00 0.00 0.00 75 1015.3
20260509172125 67 50 3.0 3.0 0.00 0.00 0.00 75 1015.3
20260509171621 66 56 3.0 3.0 0.00 0.00 0.00 75 1015.3
20260509171117 66 210 1.0 1.0 0.00 0.00 0.00 74 1015.5
20260509170614 66 289 0.0 0.0 0.00 0.00 0.00 75 1015.5
20260509170110 66 191 2.0 3.0 0.00 0.00 0.00 75 1015.5
20260509165608 66 335 0.0 0.0 0.00 0.00 0.00 76 1015.4
20260509165104 64 180 1.0 1.0 0.00 0.00 0.00 77 1015.4
20260509164600 64 319 0.0 0.0 0.00 0.00 0.00 77 1015.4
20260509164056 63 3 0.0 1.0 0.00 0.00 0.00 79 1015.3
20260509163554 62 171 1.0 1.0 0.00 0.00 0.00 80 1015.4
20260509163055 62 307 0.0 0.0 0.00 0.00 0.00 80 1015.5
20260509162552 63 17 0.0 0.0 0.00 0.00 0.00 82 1015.3
20260509162048 62 65 1.0 2.0 0.00 0.00 0.00 80 1015.5
20260509161545 61 60 2.0 2.0 0.00 0.00 0.00 83 1015.5
20260509161039 60 53 2.0 2.0 0.00 0.00 0.00 84 1015.3
20260509160535 59 0 0.0 1.0 0.00 0.00 0.00 85 1015.4
20260509160031 60 65 3.0 3.0 0.00 0.00 0.00 84 1015.4
20260509155527 59 113 2.0 2.0 0.00 0.00 0.00 86 1015.4
20260509155023 60 76 3.0 3.0 0.00 0.00 0.00 85 1015.4
20260509154520 60 40 2.0 2.0 0.00 0.00 0.00 85 1015.3
20260509154018 60 84 2.0 2.0 0.00 0.00 0.00 85 1015.3
20260509153514 59 35 1.0 2.0 0.00 0.00 0.00 87 1015.3
20260509153011 59 91 1.0 1.0 0.00 0.00 0.00 85 1015.5
20260509152507 59 80 2.0 2.0 0.00 0.00 0.00 85 1015.4
20260509152004 59 73 3.0 3.0 0.00 0.00 0.00 86 1015.4
20260509151500 59 35 0.0 1.0 0.00 0.00 0.00 85 1015.4
20260509150959 59 75 0.0 0.0 0.00 0.00 0.00 82 1015.3
20260509150455 59 106 0.0 0.0 0.00 0.00 0.00 84 1015.2
20260509145954 58 225 0.0 0.0 0.00 0.00 0.00 84 1015.3
20260509145449 57 334 0.0 0.0 0.00 0.00 0.00 92 1015.3
20260509144944 55 236 0.0 0.0 0.00 0.00 0.00 98 1015.2
20260509144441 55 33 0.0 0.0 0.00 0.00 0.00 99 1015.1
20260509143938 55 347 0.0 0.0 0.00 0.00 0.00 99 1015.0
20260509143435 56 278 0.0 0.0 0.00 0.00 0.00 99 1015.1
20260509142931 54 278 0.0 0.0 0.00 0.00 0.00 99 1015.1
20260509142428 53 278 0.0 0.0 0.00 0.00 0.00 99 1015.0
20260509141924 52 278 0.0 0.0 0.00 0.00 0.00 99 1015.2
20260509141421 52 277 0.0 0.0 0.00 0.00 0.00 99 1015.0
20260509140918 52 278 0.0 0.0 0.00 0.00 0.00 99 1015.1
20260509140414 52 277 0.0 0.0 0.00 0.00 0.00 99 1015.0
20260509135913 50 277 0.0 0.0 0.00 0.00 0.00 99 1015.1
20260509135410 49 277 0.0 0.0 0.00 0.00 0.00 99 1014.9
20260509134907 49 277 0.0 0.0 0.00 0.00 0.00 99 1014.9
20260509134404 49 277 0.0 0.0 0.00 0.00 0.00 99 1014.8
20260509133901 48 277 0.0 0.0 0.00 0.00 0.00 99 1014.9
20260509133358 48 277 0.0 0.0 0.00 0.00 0.00 99 1014.8
20260509132856 47 277 0.0 0.0 0.00 0.00 0.00 99 1014.7
20260509132354 47 277 0.0 0.0 0.00 0.00 0.00 99 1014.6
20260509131851 46 277 0.0 0.0 0.00 0.00 0.00 99 1014.6
20260509131348 46 277 0.0 0.0 0.00 0.00 0.00 99 1014.8
20260509130845 46 277 0.0 0.0 0.00 0.00 0.00 99 1014.7
20260509130340 47 277 0.0 0.0 0.00 0.00 0.00 99 1015.0
20260509125837 47 277 0.0 0.0 0.00 0.00 0.00 99 1014.5
20260509125333 47 277 0.0 0.0 0.00 0.00 0.00 99 1014.7
20260509124829 46 277 0.0 0.0 0.00 0.00 0.00 99 1014.7
20260509124326 47 277 0.0 0.0 0.00 0.00 0.00 99 1014.7
20260509123825 47 277 0.0 0.0 0.00 0.00 0.00 99 1014.5
20260509123321 47 277 0.0 0.0 0.00 0.00 0.00 99 1014.7
20260509122817 47 277 0.0 0.0 0.00 0.00 0.00 99 1014.7
20260509122314 47 277 0.0 0.0 0.00 0.00 0.00 99 1014.7
20260509121811 47 277 0.0 0.0 0.00 0.00 0.00 99 1014.7
20260509121308 46 277 0.0 0.0 0.00 0.00 0.00 99 1014.6
20260509120807 46 277 0.0 0.0 0.00 0.00 0.00 99 1014.8
20260509120304 47 277 0.0 0.0 0.00 0.00 0.00 99 1014.6
20260509115802 48 277 0.0 0.0 0.00 0.00 0.00 99 1014.8
20260509115259 48 277 0.0 0.0 0.00 0.00 0.00 99 1014.9
20260509114756 48 277 0.0 0.0 0.00 0.00 0.00 99 1014.7
20260509114255 47 277 0.0 0.0 0.00 0.00 0.00 99 1014.7
20260509113754 47 277 0.0 0.0 0.00 0.00 0.00 99 1014.8
20260509113250 48 277 0.0 0.0 0.00 0.00 0.00 99 1014.8
20260509112747 48 277 0.0 0.0 0.00 0.00 0.00 99 1014.9
20260509112245 47 277 0.0 0.0 0.00 0.00 0.00 99 1014.8
20260509111742 46 277 0.0 0.0 0.00 0.00 0.00 99 1014.8
20260509111238 47 277 0.0 0.0 0.00 0.00 0.00 99 1014.7
20260509110735 47 277 0.0 0.0 0.00 0.00 0.00 99 1014.8
20260509110232 47 277 0.0 0.0 0.00 0.00 0.00 99 1014.7
20260509105730 47 277 0.0 0.0 0.00 0.00 0.00 99 1014.6
20260509105227 47 277 0.0 0.0 0.00 0.00 0.00 99 1014.8
20260509104724 48 277 0.0 0.0 0.00 0.00 0.00 99 1014.9
20260509104221 48 277 0.0 0.0 0.00 0.00 0.00 99 1014.7
20260509103720 48 277 0.0 0.0 0.00 0.00 0.00 99 1014.8
20260509103216 48 277 0.0 0.0 0.00 0.00 0.00 99 1014.9
20260509102714 49 277 0.0 0.0 0.00 0.00 0.00 99 1014.9
20260509102211 49 277 0.0 0.0 0.00 0.00 0.00 99 1014.7
20260509101707 48 277 0.0 0.0 0.00 0.00 0.00 99 1014.7
20260509101204 48 277 0.0 0.0 0.00 0.00 0.00 99 1014.8
20260509100701 48 277 0.0 0.0 0.00 0.00 0.00 99 1014.6
20260509100158 48 277 0.0 0.0 0.00 0.00 0.00 99 1014.8
20260509095655 48 277 0.0 0.0 0.00 0.00 0.00 99 1014.8
20260509095153 48 277 0.0 0.0 0.00 0.00 0.00 99 1014.7
20260509094649 48 277 0.0 0.0 0.00 0.00 0.00 99 1014.5
20260509094146 48 277 0.0 0.0 0.00 0.00 0.00 99 1014.8
20260509093644 49 277 0.0 0.0 0.00 0.00 0.00 99 1014.7
20260509093141 49 277 0.0 0.0 0.00 0.00 0.00 99 1014.8
20260509092639 50 277 0.0 0.0 0.00 0.00 0.00 99 1014.7
20260509092137 50 277 0.0 0.0 0.00 0.00 0.00 99 1014.8
20260509091635 50 277 0.0 0.0 0.00 0.00 0.00 99 1014.9
20260509091131 50 277 0.0 0.0 0.00 0.00 0.00 99 1014.9
20260509090629 50 277 0.0 0.0 0.00 0.00 0.00 99 1014.9
20260509090126 50 277 0.0 0.0 0.00 0.00 0.00 99 1015.2
20260509085623 50 277 0.0 0.0 0.00 0.00 0.00 99 1015.0
20260509085119 50 277 0.0 0.0 0.00 0.00 0.00 99 1014.9
20260509084617 50 277 0.0 0.0 0.00 0.00 0.00 99 1015.0
20260509084113 50 276 0.0 0.0 0.00 0.00 0.00 99 1015.1
20260509083611 50 276 0.0 0.0 0.00 0.00 0.00 99 1015.1
20260509083107 51 276 0.0 0.0 0.00 0.00 0.00 99 1015.1
20260509082605 51 276 0.0 0.0 0.00 0.00 0.00 99 1015.1
20260509082056 51 276 0.0 0.0 0.00 0.00 0.00 99 1015.1
20260509081553 51 277 0.0 0.0 0.00 0.00 0.00 99 1015.2
20260509081050 51 277 0.0 0.0 0.00 0.00 0.00 99 1015.1
20260509080548 51 277 0.0 0.0 0.00 0.00 0.00 99 1015.0
20260509080046 51 277 0.0 0.0 0.00 0.00 0.00 99 1015.3
20260509075543 51 277 0.0 0.0 0.00 0.00 0.00 99 1015.2
20260509075041 51 277 0.0 0.0 0.00 0.00 0.00 99 1015.3
20260509074537 51 277 0.0 0.0 0.00 0.00 0.00 99 1015.2
20260509074034 51 277 0.0 0.0 0.00 0.00 0.00 99 1015.2
20260509073531 51 277 0.0 0.0 0.00 0.00 0.00 99 1015.4
20260509073027 51 277 0.0 0.0 0.00 0.00 0.00 99 1015.2
20260509072524 51 276 0.0 0.0 0.00 0.00 0.00 99 1015.3
20260509072021 51 277 0.0 0.0 0.00 0.00 0.00 99 1015.3
20260509071517 51 277 0.0 0.0 0.00 0.00 0.00 99 1015.2
20260509071015 51 277 0.0 0.0 0.00 0.00 0.00 99 1015.4
20260509070512 51 277 0.0 0.0 0.00 0.00 0.00 99 1015.5
20260509070008 51 277 0.0 0.0 0.00 0.01 0.01 99 1015.5
20260509065503 52 277 0.0 0.0 0.00 0.01 0.01 99 1015.7
20260509065000 51 277 0.0 0.0 0.00 0.01 0.01 99 1015.7
20260509064458 52 277 0.0 0.0 0.00 0.01 0.01 99 1015.5
20260509063956 52 277 0.0 0.0 0.00 0.01 0.01 99 1015.5
20260509063451 52 277 0.0 0.0 0.00 0.01 0.01 99 1015.5
20260509062948 52 277 0.0 0.0 0.00 0.01 0.01 99 1015.8
20260509062445 51 277 0.0 0.0 0.00 0.01 0.01 99 1015.5
20260509061943 52 277 0.0 0.0 0.00 0.01 0.01 99 1015.8
20260509061440 52 277 0.0 0.0 0.00 0.01 0.01 99 1015.9
20260509060937 53 277 0.0 0.0 0.00 0.01 0.01 99 1015.9
20260509060435 52 277 0.0 0.0 0.00 0.01 0.01 99 1015.7
20260509055930 53 277 0.0 0.0 0.00 0.01 0.01 99 1015.7
20260509055425 53 276 0.0 0.0 0.00 0.01 0.01 99 1015.9
20260509054922 52 277 0.0 0.0 0.00 0.01 0.01 99 1015.9
20260509054419 52 277 0.0 0.0 0.00 0.01 0.01 99 1015.8
20260509053917 53 276 0.0 0.0 0.00 0.01 0.01 99 1015.9
20260509053414 53 276 0.0 0.0 0.00 0.01 0.01 99 1015.9
20260509052912 53 271 0.0 0.0 0.00 0.01 0.01 99 1015.9
20260509052409 54 279 0.0 0.0 0.00 0.01 0.01 99 1015.8
20260509051906 54 279 0.0 0.0 0.00 0.01 0.01 99 1016.1
20260509051359 54 279 0.0 0.0 0.00 0.01 0.01 98 1016.0
20260509050856 54 281 0.0 0.0 0.00 0.01 0.01 98 1016.0
20260509050352 54 283 0.0 0.0 0.00 0.01 0.01 98 1015.9
20260509045849 54 282 0.0 0.0 0.00 0.01 0.01 98 1015.8
20260509045346 54 282 0.0 0.0 0.00 0.01 0.01 98 1015.9
20260509044843 54 282 0.0 0.0 0.00 0.01 0.01 98 1015.7
20260509044341 55 282 0.0 0.0 0.00 0.01 0.01 98 1015.8
20260509043837 54 282 0.0 0.0 0.00 0.01 0.01 97 1015.8
20260509043333 55 287 0.0 1.0 0.00 0.01 0.01 97 1015.7
20260509042829 55 289 0.0 0.0 0.00 0.01 0.01 97 1015.8
20260509042326 55 289 0.0 0.0 0.00 0.01 0.01 96 1015.5
20260509041823 55 289 0.0 0.0 0.00 0.01 0.01 96 1015.7
20260509041320 55 289 0.0 0.0 0.00 0.01 0.01 95 1015.7
20260509040818 56 289 0.0 0.0 0.00 0.01 0.01 96 1015.7
20260509040315 56 289 0.0 0.0 0.00 0.01 0.01 95 1015.4
20260509035812 56 287 1.0 1.0 0.00 0.01 0.01 95 1015.3
20260509035309 57 287 0.0 0.0 0.00 0.01 0.01 94 1015.4
20260509034805 57 287 0.0 0.0 0.00 0.01 0.01 94 1015.7
20260509034303 57 287 0.0 0.0 0.00 0.01 0.01 93 1015.3
20260509033800 57 287 0.0 0.0 0.00 0.01 0.01 93 1015.5
20260509033257 57 347 0.0 0.0 0.00 0.01 0.01 92 1015.3
20260509032754 58 347 0.0 0.0 0.00 0.01 0.01 91 1015.3
20260509032251 58 347 0.0 0.0 0.00 0.01 0.01 91 1015.4
20260509031748 59 340 0.0 0.0 0.00 0.01 0.01 90 1015.3
20260509031246 60 337 0.0 0.0 0.00 0.01 0.01 89 1015.0
20260509030744 60 338 0.0 0.0 0.00 0.01 0.01 88 1015.3
20260509030241 61 304 0.0 0.0 0.00 0.01 0.01 87 1015.0
20260509025738 61 16 0.0 0.0 0.00 0.01 0.01 86 1015.0
20260509025233 62 50 1.0 2.0 0.00 0.01 0.01 85 1015.0
20260509024728 62 1 1.0 2.0 0.00 0.01 0.01 84 1015.1
20260509024224 63 2 0.0 0.0 0.00 0.01 0.01 83 1015.1
20260509023722 64 358 0.0 0.0 0.00 0.01 0.01 82 1015.1
20260509023219 64 355 0.0 0.0 0.00 0.01 0.01 81 1015.2
20260509022715 65 355 0.0 0.0 0.00 0.01 0.01 79 1015.0
20260509022213 66 347 1.0 2.0 0.00 0.01 0.01 78 1014.9
20260509021710 66 29 2.0 2.0 0.00 0.01 0.01 78 1014.9
20260509021208 66 343 0.0 0.0 0.00 0.01 0.01 77 1015.1
20260509020705 67 28 1.0 1.0 0.00 0.01 0.01 76 1014.7
20260509020202 67 38 1.0 1.0 0.00 0.01 0.01 76 1015.1
20260509015701 68 94 2.0 2.0 0.00 0.01 0.01 75 1014.9
20260509015158 68 8 1.0 1.0 0.00 0.01 0.01 75 1015.0
20260509014654 68 48 1.0 1.0 0.00 0.01 0.01 74 1014.9
20260509014150 68 45 1.0 1.0 0.00 0.01 0.01 73 1014.9
20260509013648 69 69 2.0 2.0 0.00 0.01 0.01 73 1015.0
20260509013144 70 32 1.0 1.0 0.00 0.01 0.01 72 1014.8
20260509012640 70 1 0.0 0.0 0.00 0.01 0.01 72 1015.1
20260509012137 70 315 0.0 0.0 0.00 0.01 0.01 71 1015.1
20260509011635 70 50 1.0 1.0 0.00 0.01 0.01 72 1015.0
20260509011132 69 258 0.0 1.0 0.00 0.01 0.01 71 1015.1
20260509010630 69 265 0.0 1.0 0.00 0.01 0.01 71 1015.2
20260509010126 69 68 2.0 2.0 0.00 0.01 0.01 72 1015.4
20260509005624 69 261 1.0 1.0 0.00 0.01 0.01 71 1015.1
20260509005120 69 226 1.0 1.0 0.00 0.01 0.01 71 1015.3
20260509004616 69 280 1.0 1.0 0.00 0.01 0.01 71 1015.2
20260509004113 70 209 1.0 2.0 0.00 0.01 0.01 70 1015.1
20260509003612 71 66 1.0 1.0 0.00 0.01 0.01 70 1015.2
20260509003109 71 94 3.0 3.0 0.00 0.01 0.01 70 1015.2
20260509002606 71 72 2.0 2.0 0.00 0.01 0.01 69 1015.3
20260509002103 72 109 2.0 2.0 0.00 0.01 0.01 66 1015.5
20260509001601 72 213 1.0 2.0 0.00 0.01 0.01 66 1015.3
20260509001056 72 43 1.0 1.0 0.00 0.01 0.01 66 1015.3
20260509000555 72 137 2.0 2.0 0.00 0.01 0.01 66 1015.5
20260509000050 72 215 1.0 2.0 0.00 0.01 0.01 66 1015.5
20260508235548 72 177 2.0 2.0 0.00 0.01 0.01 67 1015.4
20260508235044 73 215 1.0 2.0 0.00 0.01 0.01 66 1015.5
20260508234542 74 246 1.0 2.0 0.00 0.01 0.01 65 1015.5
20260508234039 73 232 1.0 2.0 0.00 0.01 0.01 64 1015.9
20260508233538 73 68 1.0 2.0 0.00 0.01 0.01 66 1015.9
20260508233035 73 357 1.0 2.0 0.00 0.01 0.01 66 1015.7
20260508232532 73 186 2.0 2.0 0.00 0.01 0.01 64 1015.9
20260508232029 73 32 2.0 2.0 0.00 0.01 0.01 68 1015.8
20260508231526 73 15 1.0 1.0 0.00 0.01 0.01 67 1015.8
20260508231023 73 90 3.0 5.0 0.00 0.01 0.01 67 1015.9
20260508230520 73 41 2.0 2.0 0.00 0.01 0.01 65 1016.0
20260508230017 74 64 3.0 3.0 0.00 0.01 0.01 65 1016.1
20260508225514 74 75 2.0 2.0 0.00 0.01 0.01 66 1016.0
20260508225010 74 42 3.0 3.0 0.00 0.01 0.01 65 1016.1